User: anonymous   Login
Location: Unspecified
(0.0000°N, 0.0000°E)
Time: 05:16:06
(UTC+00:00)
Language:

NNS O-25 - Orbit

View from above orbital plane
View from above orbital plane
View from above satellite
View from above satellite

Ground track
Ground track

The orbit data is extracted from the following two-line orbital elements,

1 19419U 88074A   18109.78545841  .00000035  00000-0  46761-4 0  9998
2 19419  89.9931  18.5523 0094821 294.7879 121.6867 13.42187498451850
Epoch (UTC): 19 April 2018 18:51:03
Eccentricity: 0.0094821
inclination: 89.9931°
perigee height: 1030 km
apogee height: 1172 km
right ascension of ascending node: 18.5523°
argument of perigee: 294.7879°
revolutions per day: 13.42187498
mean anomaly at epoch: 121.6867°
orbit number at epoch: 45185

The dashed part of the orbit path shows where the satellite is in the earth's shadow,  

DLR